Mojave, CA

11:55 PM PST on December 09, 2019 (GMT -0800)
Mojave

Weather History for KMHV - May, 2019

Change the Weather History Date:

Monday, May 27, 2019

  Actual Average Record
Temperature  
Mean Temperature 53 °F -  
Max Temperature 62 °F 84 °F 100 °F (1974)
Min Temperature 44 °F 57 °F 39 °F (1977)
Degree Days  
Heating Degree Days 12    
Growing Degree Days 3 (Base 50)    
Moisture  
Dew Point 37 °F    
Average Humidity 57    
Maximum Humidity 76    
Minimum Humidity 42    
Precipitation  
Precipitation 0.00 in - - ()
Sea Level Pressure  
Sea Level Pressure 29.92 in    
Wind  
Wind Speed 22 mph (WNW)    
Max Wind Speed 37 mph    
Max Gust Speed 51 mph    
Visibility 10 miles    
Events      
Averages and records for this station are not official NWS values.
T = Trace of Precipitation, MM = Missing Value Source: NWS Daily Summary

Daily Weather History Graph

Daily Weather History Graph

Search for Another Location

Airport or City:

Astronomy

May. 27, 2019 Rise Set
Actual Time 5:41 AM PDT 7:58 PM PDT
Civil Twilight 5:12 AM PDT 8:27 PM PDT
Nautical Twilight 4:37 AM PDT 9:02 PM PDT
Astronomical Twilight 3:58 AM PDT 9:41 PM PDT
Moon 2:08 AM PDT (5/27) 1:33 PM PDT (5/27)
Length of Visible Light 15h 14m
Length of Day
14h 16m
Last Quarter, 40% of the Moon is Illuminated
May 27
Last Quarter
Jun 3
New
Jun 9
First Quarter
Jun 17
Full
Jun 25
Last Quarter

Hourly Weather History & Observations

Time (PDT) Temp. Windchill Dew Point Humidity Pressure Visibility Wind Dir Wind Speed Gust Speed Precip Events Conditions
12:20 AM 44.6 °F 36.4 °F 35.6 °F 71% 29.90 in 10.0 mi WNW 20.7 mph 32.2 mph N/A   Overcast
12:40 AM 44.6 °F 37.8 °F 37.4 °F 76% 29.89 in 10.0 mi West 15.0 mph 24.2 mph N/A   Mostly Cloudy
1:00 AM 44.6 °F 35.7 °F 35.6 °F 71% 29.88 in 10.0 mi West 24.2 mph 35.7 mph N/A   Mostly Cloudy
1:20 AM 44.6 °F 35.7 °F 37.4 °F 76% 29.90 in 10.0 mi West 24.2 mph 34.5 mph N/A   Mostly Cloudy
1:40 AM 44.6 °F 35.1 °F 37.4 °F 76% 29.87 in 10.0 mi WSW 27.6 mph 38.0 mph N/A   Mostly Cloudy
2:00 AM 44.6 °F 39.7 °F 37.4 °F 76% 29.90 in 10.0 mi SW 9.2 mph 23.0 mph N/A   Mostly Cloudy
2:40 AM 44.6 °F 37.8 °F 37.4 °F 76% 29.89 in 10.0 mi WSW 15.0 mph 23.0 mph N/A   Overcast
3:00 AM 44.6 °F 37.2 °F 35.6 °F 71% 29.89 in 10.0 mi WSW 17.3 mph 26.5 mph N/A   Overcast
3:20 AM 44.6 °F 38.1 °F 35.6 °F 71% 29.88 in 10.0 mi West 13.8 mph 27.6 mph N/A   Overcast
3:40 AM 44.6 °F 42.2 °F 35.6 °F 71% 29.90 in 10.0 mi Variable 4.6 mph 17.3 mph N/A   Overcast
4:00 AM 44.6 °F 40.2 °F 35.6 °F 71% 29.89 in 10.0 mi South 8.1 mph 15.0 mph N/A   Overcast
4:20 AM 44.6 °F 41.4 °F 33.8 °F 66% 29.89 in 10.0 mi Variable 5.8 mph 21.9 mph N/A   Mostly Cloudy
5:00 AM 46.4 °F 36.5 °F 33.8 °F 62% 29.85 in 10.0 mi West 34.5 mph 44.9 mph N/A   Partly Cloudy
5:20 AM 44.6 °F 36.4 °F 33.8 °F 66% 29.87 in 10.0 mi West 20.7 mph 32.2 mph N/A   Clear
5:40 AM 44.6 °F 35.1 °F 33.8 °F 66% 29.88 in 10.0 mi SW 27.6 mph 36.8 mph N/A   Clear
6:00 AM 44.6 °F 36.4 °F 33.8 °F 66% 29.89 in 10.0 mi WSW 20.7 mph - N/A   Clear
6:20 AM 46.4 °F 39.2 °F 33.8 °F 62% 29.90 in 10.0 mi WSW 18.4 mph 27.6 mph N/A   Clear
6:40 AM 46.4 °F 38.1 °F 33.8 °F 62% 29.91 in 10.0 mi West 24.2 mph 32.2 mph N/A   Clear
7:00 AM 46.4 °F 38.1 °F 33.8 °F 62% 29.92 in 10.0 mi West 24.2 mph 35.7 mph N/A   Clear
7:20 AM 48.2 °F - 33.8 °F 58% 29.92 in 10.0 mi North - - N/A   Clear
7:40 AM 48.2 °F - 35.6 °F 62% 29.93 in 10.0 mi West 24.2 mph 35.7 mph N/A   Clear
8:20 AM 50.0 °F - 33.8 °F 54% 29.94 in 10.0 mi NW 17.3 mph 34.5 mph N/A   Clear
8:40 AM 51.8 °F - 33.8 °F 50% 29.94 in 10.0 mi WNW 12.7 mph 23.0 mph N/A   Clear
9:00 AM 51.8 °F - 35.6 °F 54% 29.94 in 10.0 mi WNW 15.0 mph 33.4 mph N/A   Clear
9:20 AM 51.8 °F - 37.4 °F 58% 29.95 in 10.0 mi West 19.6 mph 33.4 mph N/A   Clear
9:40 AM 53.6 °F - 35.6 °F 51% 29.95 in 10.0 mi WNW 12.7 mph 21.9 mph N/A   Clear
10:20 AM 55.4 °F - 39.2 °F 54% 29.95 in 10.0 mi WNW 20.7 mph - N/A   Clear
10:40 AM 55.4 °F - 39.2 °F 54% 29.96 in 10.0 mi West 17.3 mph - N/A   Clear
11:00 AM 55.4 °F - 39.2 °F 54% 29.96 in 10.0 mi West 21.9 mph - N/A   Clear
11:20 AM 55.4 °F - 39.2 °F 54% 29.96 in 10.0 mi West 26.5 mph 33.4 mph N/A   Clear
11:40 AM 55.4 °F - 37.4 °F 51% 29.97 in 10.0 mi West 25.3 mph 34.5 mph N/A   Clear
12:00 PM 55.4 °F - 39.2 °F 54% 29.96 in 10.0 mi WNW 17.3 mph 27.6 mph N/A   Clear
12:20 PM 57.2 °F - 39.2 °F 51% 29.95 in 10.0 mi WNW 27.6 mph 35.7 mph N/A   Clear
12:40 PM 57.2 °F - 39.2 °F 51% 29.94 in 10.0 mi WNW 29.9 mph 35.7 mph N/A   Clear
1:20 PM 59.0 °F - 39.2 °F 48% 29.93 in 10.0 mi WNW 25.3 mph - N/A   Clear
1:40 PM 60.8 °F - 39.2 °F 45% 29.93 in 10.0 mi WNW 23.0 mph 32.2 mph N/A   Clear
2:00 PM 62.6 °F - 39.2 °F 42% 29.93 in 10.0 mi WNW 21.9 mph - N/A   Clear
2:20 PM 60.8 °F - 39.2 °F 45% 29.93 in 10.0 mi WNW 27.6 mph - N/A   Clear
2:40 PM 60.8 °F - 39.2 °F 45% 29.94 in 10.0 mi WNW 27.6 mph 35.7 mph N/A   Clear
3:00 PM 59.0 °F - 39.2 °F 48% 29.95 in 10.0 mi WNW 21.9 mph 38.0 mph N/A   Clear
3:40 PM 59.0 °F - 39.2 °F 48% 29.93 in 10.0 mi NW 31.1 mph 38.0 mph N/A   Clear
4:00 PM 59.0 °F - 39.2 °F 48% 29.93 in 10.0 mi WNW 31.1 mph 38.0 mph N/A   Clear
4:20 PM 59.0 °F - 39.2 °F 48% 29.92 in 10.0 mi WNW 32.2 mph 42.6 mph N/A   Clear
4:40 PM 57.2 °F - 37.4 °F 48% 29.93 in 10.0 mi WNW 35.7 mph 48.3 mph N/A   Clear
5:00 PM 57.2 °F - 39.2 °F 51% 29.92 in 10.0 mi WNW 35.7 mph 46.0 mph N/A   Clear
5:20 PM 57.2 °F - 39.2 °F 51% 29.92 in 10.0 mi WNW 33.4 mph 46.0 mph N/A   Clear
5:40 PM 57.2 °F - 37.4 °F 48% 29.94 in 10.0 mi WNW 32.2 mph 44.9 mph N/A   Clear
6:20 PM 55.4 °F - 39.2 °F 54% 29.92 in 10.0 mi WNW 36.8 mph 47.2 mph N/A   Clear
6:40 PM 55.4 °F - 37.4 °F 51% 29.91 in 10.0 mi WNW 35.7 mph 48.3 mph N/A   Clear
7:00 PM 55.4 °F - 37.4 °F 51% 29.93 in 10.0 mi WNW 29.9 mph 46.0 mph N/A   Clear
7:20 PM 53.6 °F - 39.2 °F 58% 29.92 in 10.0 mi NW 34.5 mph 50.6 mph N/A   Clear
7:40 PM 53.6 °F - 39.2 °F 58% 29.92 in 10.0 mi NW 35.7 mph 44.9 mph N/A   Clear
8:00 PM 53.6 °F - 37.4 °F 54% 29.92 in 10.0 mi WNW 27.6 mph 46.0 mph N/A   Clear
8:40 PM 51.8 °F - 37.4 °F 58% 29.93 in 10.0 mi WNW 28.8 mph 39.1 mph N/A   Clear
9:00 PM 53.6 °F - 37.4 °F 54% 29.93 in 10.0 mi NW 29.9 mph 39.1 mph N/A   Clear
9:20 PM 53.6 °F - 37.4 °F 54% 29.94 in 10.0 mi WNW 27.6 mph 43.7 mph N/A   Clear
9:40 PM 53.6 °F - 37.4 °F 54% 29.94 in 10.0 mi WNW 26.5 mph 40.3 mph N/A   Clear
10:00 PM 53.6 °F - 37.4 °F 54% 29.94 in 10.0 mi WNW 26.5 mph 40.3 mph N/A   Partly Cloudy
10:40 PM 53.6 °F - 37.4 °F 54% 29.94 in 10.0 mi NW 24.2 mph 31.1 mph N/A   Clear
11:00 PM 53.6 °F - 37.4 °F 54% 29.94 in 10.0 mi NW 20.7 mph 27.6 mph N/A   Clear
11:20 PM 53.6 °F - 37.4 °F 54% 29.94 in 10.0 mi WNW 18.4 mph - N/A   Clear
11:40 PM 53.6 °F - 37.4 °F 54% 29.94 in 10.0 mi WNW 23.0 mph - N/A   Clear